Tracking 22130 objects as of 21-Jan-2021
HD Live streaming from Space Station
objects crossing your sky now

FENGYUN 1B

Track FENGYUN 1B now!
10-day predictions
FENGYUN 1B is classified as:


NORAD ID: 20788
Int'l Code: 1990-081A
Perigee: 879.4 km
Apogee: 903.6 km
Inclination: 98.8 °
Period: 102.7 minutes
Semi major axis: 7262 km
RCS: 3.0595 m2 (large)
Launch date: September 3, 1990
Source: People's Republic of China (PRC)
Launch site: Taiyaun Space Center, China (TSC)
aabbcc
Your satellite tracking list
Your tracking list is empty




NASA's NSSDC Master Catalog

Two Line Element Set (TLE):
1 20788U 90081A   21020.93628729  .00000339  00000-0  24629-3 0  9995
2 20788  98.7943  25.8877 0016672  75.3681 284.9333 14.02718584554877
Source of the keplerian elements: AFSPC